Regional Weather Roundup
Issued by NWS Jackson, KY

Home | Current Version | Previous Version | Text Only | Print | Product List | Glossary Off
Versions: 1 2 3 4 5 6 7 8 9 10 11 12 13 14 15 16 17 18 19 20 21 22 23 24 25 26 27 28 29 30 31 32 33 34 35 36 37 38 39 40 41 42 43 44 45 46 47 48 49 50

000
ASUS43 KJKL 210510
RWRJKL

EAST KENTUCKY HOURLY WEATHER ROUNDUP
NATIONAL WEATHER SERVICE JACKSON KY
100 AM EDT MON APR 21 2014

NOTE: "FAIR" INDICATES FEW OR NO CLOUDS BELOW 12,000 FEET WITH
NO SIGNIFICANT WEATHER AND/OR OBSTRUCTIONS TO VISIBILITY.

* THESE REPORTS ARE NOT UNDER NWS QUALITY CONTROL AND MAY NOT
  REPORT WEATHER SUCH AS PRECIPITATION AND FOG.

KYZ079-080-083-085-087-088-110-112-115-119-120-210600
...EASTERN KENTUCKY...

CITY           SKY/WX    TMP DP  RH WIND       PRES   REMARKS
JACKSON        PTCLDY    66  29  24 N3        30.13F
LONDON         PTCLDY    55  44  66 CALM      30.13F
SOMERSET*      PTCLDY    52  43  71 CALM      30.14S
MONTICELLO*    PTCLDY    48  43  83 CALM      30.15S
WILLIAMSBURG*  CLEAR     55  41  58 CALM      30.14
MIDDLESBORO*   CLEAR     49  42  76 CALM      30.15F
HARLAN APT*    MOCLDY    52  37  58 NE7       30.16S
BLACK MTN*       N/A     52  27  37 S7          N/A
PIKEVILLE APT* CLEAR     63  28  27 S6        30.14S
BIG SANDY*     PTCLDY    62  31  30 SE5       30.13S
MOREHEAD APT*  PTCLDY    61  41  48 S1        30.14F
$$

KYZ035-036-041-042-044-050-067-078-099-210600
...CENTRAL KENTUCKY...

CITY           SKY/WX    TMP DP  RH WIND       PRES   REMARKS
MT STERLING*   CLEAR     50  46  87 SE3       30.13F
FLEMING/MASON* CLEAR     64  39  39 CALM      30.12F
DANVILLE*      PTCLDY    52  43  71 CALM      30.13F
LEXINGTON      PTCLDY    56  43  61 SE3       30.11F
FRANKFORT      PTCLDY    52  43  71 CALM      30.10F
$$

KYZ091>093-OHZ055-061-077-WVZ005-015-034-035-042-210600
...SOUTHERN OHIO/WEST VIRGINIA...

CITY           SKY/WX    TMP DP  RH WIND       PRES   REMARKS
COVINGTON      PTCLDY    55  43  63 S3        30.10F
COLUMBUS       CLEAR     57  40  52 CALM      30.11S
DAYTON         PTCLDY    61  34  36 CALM      30.10F
WILMINGTON     CLEAR     54  40  59 SE3       30.10F
HUNTINGTON     MOCLDY    54  35  48 E6        30.11S
CHARLESTON     MOCLDY    56  34  43 N3        30.12F
PINEVILLE*     PTCLDY    48  38  67 MISG      30.23S
BECKLEY        PTCLDY    53  27  36 SE7       30.19F
BLUEFIELD      CLEAR     54  27  35 SE6       30.21F
$$

VAZ002-007-008-TNZ017-027-036-066-071-210600
...SOUTHWEST VIRGINIA/EAST TENNESSEE...

CITY           SKY/WX    TMP DP  RH WIND       PRES   REMARKS
WISE*          MOCLDY    57  23  26 S7        30.20S
ABINGDON*      CLEAR     55  28  34 E9        30.19F
BRISTOL        PTCLDY    50  30  46 N3        30.18S
KNOXVILLE      PTCLDY    56  41  57 CALM      30.13S
OAK RIDGE      MOCLDY    55  45  68 CALM      30.15S
CROSSVILLE     MOCLDY    55  39  54 CALM      30.17F
NASHVILLE      PTCLDY    56  49  77 S3        30.12S
$$

...KEY TO REMARKS...
VSB - VISIBILITY IN MILES
WCI - WIND CHILL INDEX
HX  - HEAT INDEX

$$



USA.gov is the U.S. government's official web portal to all federal, state and local government web resources and services.